Location: Newark
(33.6333°S, 78.8500°W)
Time: 22:37:26
(UTC+00:00)

Altair - All Passes

Search period start: 17 September 2019 00:00
Search period end: 27 September 2019 00:00
Orbit: 1501 x 1683 km, 47.2° (Epoch: 16 September)

Date Brightness Start Highest point End Pass type
(mag) Time Alt. Az. Time Alt. Az. Time Alt. Az.
17 Sep - 11:05:36 10° NNW 11:13:46 36° NE 11:21:52 10° ESE daylight
17 Sep - 13:08:45 10° WNW 13:17:56 72° SSW 13:27:14 10° SE daylight
17 Sep - 15:15:34 10° WSW 15:23:56 37° S 15:32:30 10° SE daylight
17 Sep - 17:22:07 10° SW 17:30:48 41° SSE 17:39:43 10° E daylight
17 Sep - 19:26:59 10° SW 19:36:29 87° SE 19:46:19 10° NE daylight
17 Sep - 21:32:50 10° WSW 21:40:31 28° NW 21:48:25 10° N daylight
18 Sep - 10:40:47 10° N 10:48:41 33° NE 10:56:32 10° ESE visible
18 Sep - 12:43:32 10° WNW 12:52:46 77° SW 13:02:03 10° SE daylight
18 Sep - 14:50:13 10° WSW 14:58:38 38° SSW 15:07:12 10° SE daylight
18 Sep - 16:56:55 10° SW 17:05:30 39° SSE 17:14:18 10° E daylight
18 Sep - 19:01:50 10° SW 19:11:18 82° SE 19:21:06 10° NE daylight
18 Sep - 21:07:27 10° WSW 21:15:26 31° NW 21:23:39 10° N daylight
19 Sep - 10:16:01 10° N 10:23:38 29° NE 10:31:10 10° ESE visible
19 Sep - 12:18:20 10° NW 12:27:35 82° SW 12:36:53 10° SE daylight
19 Sep - 14:24:51 10° W 14:33:20 39° SSW 14:41:56 10° SE daylight
19 Sep - 16:31:41 10° SW 16:40:11 38° SSE 16:48:53 10° ESE daylight
19 Sep - 18:36:41 10° SW 18:46:06 77° SE 18:55:51 10° ENE daylight
19 Sep - 20:42:05 10° WSW 20:50:20 34° NW 20:58:49 10° N daylight
20 Sep - 09:51:17 10° N 09:58:34 26° NE 10:05:46 10° ESE visible
20 Sep - 11:53:09 10° NW 12:02:26 88° SW 12:11:43 10° SE daylight
20 Sep - 13:59:30 10° W 14:08:02 40° SSW 14:16:41 10° SE daylight
20 Sep - 16:06:26 10° SW 16:14:52 37° S 16:23:29 10° ESE daylight
20 Sep - 18:11:32 10° SW 18:20:55 72° SSE 18:30:35 10° ENE daylight
20 Sep - 20:16:47 10° WSW 20:25:14 38° NW 20:33:57 10° NNE daylight
21 Sep - 09:26:38 10° N 09:33:30 23° NE 09:40:17 10° ESE visible
21 Sep - 11:27:59 10° NW 11:37:17 86° NE 11:46:32 10° SE daylight
21 Sep - 13:34:08 10° W 13:42:45 42° SSW 13:51:27 10° SE daylight
21 Sep - 15:41:11 10° WSW 15:49:34 36° S 15:58:05 10° ESE daylight
21 Sep - 17:46:23 10° SW 17:55:42 68° SSE 18:05:17 10° ENE daylight
21 Sep - 19:51:29 10° WSW 20:00:08 42° NW 20:09:03 10° NNE daylight
22 Sep - 09:02:03 10° N 09:08:27 21° NE 09:14:46 10° E visible
22 Sep - 11:02:51 10° NW 11:12:08 81° NE 11:21:22 10° SE daylight
22 Sep - 13:08:47 10° W 13:17:28 44° SSW 13:26:14 10° SE daylight
22 Sep - 15:15:55 10° WSW 15:24:14 36° S 15:32:41 10° ESE daylight
22 Sep - 17:21:14 10° SW 17:30:29 63° SSE 17:39:59 10° ENE daylight
22 Sep - 19:26:14 10° WSW 19:35:01 46° NW 19:44:06 10° NNE daylight
23 Sep - 08:37:34 10° NNE 08:43:24 18° NE 08:49:10 10° E visible
23 Sep - 10:37:44 10° NW 10:47:00 75° NE 10:56:11 10° SE visible
23 Sep - 12:43:26 10° W 12:52:12 46° SSW 13:01:01 10° SE daylight
23 Sep - 14:50:38 10° WSW 14:58:55 35° S 15:07:18 10° ESE daylight
23 Sep - 16:56:05 10° SW 17:05:15 60° SSE 17:14:40 10° ENE daylight
23 Sep - 19:00:59 10° WSW 19:09:54 50° NW 19:19:07 10° NNE daylight
24 Sep - 08:13:13 10° NNE 08:18:22 16° NE 08:23:26 10° E visible
24 Sep - 10:12:38 10° NW 10:21:52 69° NE 10:31:01 10° ESE visible
24 Sep - 12:18:05 10° W 12:26:56 48° SSW 12:35:49 10° SE daylight
24 Sep - 14:25:20 10° WSW 14:33:35 35° S 14:41:57 10° ESE daylight
24 Sep - 16:30:56 10° SW 16:40:01 56° SSE 16:49:20 10° ENE daylight
24 Sep - 18:35:46 10° WSW 18:44:47 55° NW 18:54:06 10° NNE daylight
24 Sep - 20:46:12 10° WNW 20:48:11 11° WNW 20:50:10 10° NW daylight
25 Sep - 07:49:04 10° NNE 07:53:19 14° ENE 07:57:31 10° E visible
25 Sep - 09:47:34 10° NW 09:56:45 63° NE 10:05:49 10° ESE visible
25 Sep - 11:52:45 10° W 12:01:42 50° SSW 12:10:38 10° SE daylight
25 Sep - 14:00:02 10° WSW 14:08:16 35° S 14:16:35 10° ESE daylight
25 Sep - 16:05:46 10° SW 16:14:47 53° SSE 16:23:59 10° ENE daylight
25 Sep - 18:10:33 10° WSW 18:19:40 60° NW 18:29:03 10° NNE daylight
25 Sep - 20:19:27 10° W 20:23:08 13° WNW 20:26:51 10° NW daylight
26 Sep - 07:25:17 10° NE 07:28:16 12° ENE 07:31:14 10° ENE visible
26 Sep - 09:22:31 10° NNW 09:31:38 58° NE 09:40:36 10° ESE visible
26 Sep - 11:27:25 10° WNW 11:36:27 53° SSW 11:45:27 10° SE daylight
26 Sep - 13:34:42 10° WSW 13:42:56 35° S 13:51:14 10° ESE daylight
26 Sep - 15:40:36 10° SW 15:49:32 50° SSE 15:58:38 10° E daylight
26 Sep - 17:45:22 10° WSW 17:54:32 65° NW 18:03:59 10° NE daylight
26 Sep - 19:53:22 10° W 19:58:04 15° WNW 20:02:52 10° NNW daylight
